Weather History for KBIE - December, 2011

Change the Weather History Date:

Saturday, December 10, 2011

  Actual Average Record
Temperature  
Mean Temperature 24 °F -  
Max Temperature 44 °F 40 °F 60 °F (1975)
Min Temperature 5 °F 19 °F -2 °F (1972)
Degree Days  
Heating Degree Days 40    
Moisture  
Dew Point 21 °F    
Average Humidity 85    
Maximum Humidity 100    
Minimum Humidity 61    
Precipitation  
Precipitation 0.00 in - - ()
Sea Level Pressure  
Sea Level Pressure 30.38 in    
Wind  
Wind Speed 3 mph (SW)    
Max Wind Speed 13 mph    
Max Gust Speed -    
Visibility 7 miles    
Events Fog    
Averages and records for this station are not official NWS values.
T = Trace of Precipitation, MM = Missing Value Source: NWS Daily Summary

Daily Weather History Graph

Daily Weather History Graph

Search for Another Location

Airport or City:

Trip Planner

Search our weather history database for the weather conditions in past years. The results will help you decide how hot, cold, wet, or windy it might be!

Date:

Astronomy

Dec. 10, 2011 Rise Set
Actual Time 7:38 AM CST 5:00 PM CST
Civil Twilight 7:08 AM CST 5:31 PM CST
Nautical Twilight 6:33 AM CST 6:05 PM CST
Astronomical Twilight 6:00 AM CST 6:38 PM CST
Moon 5:15 PM CST (12/10) 7:39 AM CST (12/10)
Length of Visible Light 10h 23m
Length of Day
9h 22m
Full, 100% of the Moon is Illuminated
Dec 10
Full
Dec 17
Last Quarter
Dec 24
New
Jan 1
First Quarter
Jan 9
Full

Hourly Weather History & Observations

Time (CST) Temp. Windchill Dew Point Humidity Pressure Visibility Wind Dir Wind Speed Gust Speed Precip Events Conditions
12:15 AM 6.8 °F - 3.2 °F 85% 30.47 in 0.5 mi Calm Calm - N/A Fog Light Freezing Fog
12:35 AM 5.0 °F - 3.2 °F 92% 30.48 in 0.5 mi Calm Calm - N/A Fog Light Freezing Fog
12:55 AM 6.8 °F - 3.2 °F 85% 30.47 in 1.5 mi Calm Calm - N/A   Mostly Cloudy
1:15 AM 5.0 °F - 3.2 °F 92% 30.46 in 5.0 mi Calm Calm - N/A   Mostly Cloudy
1:35 AM 6.8 °F - 3.2 °F 85% 30.46 in 5.0 mi Calm Calm - N/A   Mostly Cloudy
1:55 AM 6.8 °F - 3.2 °F 85% 30.46 in 5.0 mi Calm Calm - N/A   Mostly Cloudy
2:15 AM 6.8 °F - 3.2 °F 85% 30.46 in 7.0 mi Calm Calm - N/A   Overcast
2:35 AM 6.8 °F - 3.2 °F 85% 30.45 in 7.0 mi Calm Calm - N/A   Mostly Cloudy
2:55 AM 6.8 °F - 3.2 °F 85% 30.45 in 5.0 mi Calm Calm - N/A   Scattered Clouds
3:15 AM 6.8 °F - 5.0 °F 92% 30.45 in 4.0 mi Calm Calm - N/A   Clear
3:35 AM 8.6 °F - 5.0 °F 85% 30.44 in 4.0 mi Calm Calm - N/A   Clear
3:55 AM 8.6 °F - 5.0 °F 85% 30.43 in 5.0 mi Calm Calm - N/A   Clear
4:15 AM 8.6 °F - 6.8 °F 92% 30.42 in 5.0 mi Calm Calm - N/A   Mostly Cloudy
4:35 AM 10.4 °F - 8.6 °F 92% 30.41 in 7.0 mi Calm Calm - N/A   Overcast
4:55 AM 14.0 °F - 12.2 °F 93% 30.41 in 7.0 mi Calm Calm - N/A   Overcast
5:15 AM 17.6 °F - 15.8 °F 93% 30.41 in 7.0 mi Calm Calm - N/A   Overcast
5:35 AM 19.4 °F - 17.6 °F 93% 30.40 in 5.0 mi Calm Calm - N/A   Mostly Cloudy
5:55 AM 17.6 °F - 17.6 °F 100% 30.40 in 5.0 mi Calm Calm - N/A   Scattered Clouds
6:15 AM 17.6 °F 12.3 °F 14.0 °F 86% 30.39 in 7.0 mi SSE 3.5 mph - N/A   Clear
6:35 AM 17.6 °F 12.3 °F 15.8 °F 93% 30.39 in 7.0 mi South 3.5 mph - N/A   Clear
6:55 AM 19.4 °F - 17.6 °F 93% 30.39 in 7.0 mi Calm Calm - N/A   Clear
7:15 AM 19.4 °F 14.3 °F 17.6 °F 93% 30.39 in 5.0 mi South 3.5 mph - N/A   Clear
7:35 AM 19.4 °F 14.3 °F 19.4 °F 100% 30.39 in 7.0 mi South 3.5 mph - N/A   Clear
7:55 AM 19.4 °F 14.3 °F 17.6 °F 93% 30.39 in 5.0 mi South 3.5 mph - N/A   Clear
8:15 AM 21.2 °F 16.4 °F 19.4 °F 93% 30.39 in 5.0 mi South 3.5 mph - N/A   Clear
8:35 AM 23.0 °F 18.4 °F 21.2 °F 93% 30.39 in 5.0 mi South 3.5 mph - N/A   Clear
8:55 AM 23.0 °F - 23.0 °F 100% 30.39 in 5.0 mi Calm Calm - N/A   Clear
9:15 AM 26.6 °F 22.6 °F 26.6 °F 100% 30.40 in 4.0 mi SW 3.5 mph - N/A   Clear
9:35 AM 28.4 °F 20.4 °F 28.4 °F 100% 30.40 in 5.0 mi SW 8.1 mph - N/A   Clear
9:55 AM 30.2 °F 21.9 °F 30.2 °F 100% 30.40 in 7.0 mi WSW 9.2 mph - N/A   Clear
10:15 AM - - - N/A% 30.40 in 7.0 mi SW 10.4 mph - N/A   Clear
10:35 AM 32.0 °F 23.0 °F 32.0 °F 100% 30.40 in 7.0 mi WSW 11.5 mph - N/A   Clear
10:55 AM 32.0 °F 23.0 °F 32.0 °F 100% 30.40 in 7.0 mi SW 11.5 mph - N/A   Clear
11:15 AM 33.8 °F 26.4 °F 32.0 °F 93% 30.40 in 10.0 mi WSW 9.2 mph - N/A   Clear
11:35 AM 33.8 °F 26.4 °F 30.2 °F 87% 30.39 in 10.0 mi WSW 9.2 mph - N/A   Clear
11:55 AM 35.6 °F 27.5 °F 32.0 °F 87% 30.38 in 10.0 mi SW 11.5 mph - N/A   Clear
12:15 PM 35.6 °F 28.0 °F 32.0 °F 87% 30.37 in 10.0 mi WSW 10.4 mph - N/A   Clear
12:35 PM 37.4 °F 30.3 °F 32.0 °F 81% 30.36 in 10.0 mi WSW 10.4 mph - N/A   Clear
12:55 PM 39.2 °F 32.0 °F 32.0 °F 75% 30.35 in 10.0 mi WSW 11.5 mph - N/A   Clear
1:15 PM 41.0 °F 34.7 °F 32.0 °F 70% 30.34 in 10.0 mi WSW 10.4 mph - N/A   Clear
1:35 PM 42.8 °F 37.0 °F 32.0 °F 66% 30.33 in 10.0 mi SW 10.4 mph - N/A   Clear
1:55 PM 42.8 °F 36.2 °F 32.0 °F 66% 30.32 in 10.0 mi SW 12.7 mph - N/A   Clear
2:15 PM 44.6 °F 38.4 °F 32.0 °F 61% 30.32 in 10.0 mi SSW 12.7 mph - N/A   Clear
2:35 PM 44.6 °F 38.4 °F 32.0 °F 61% 30.31 in 10.0 mi SW 12.7 mph - N/A   Clear
2:55 PM 44.6 °F 40.2 °F 32.0 °F 61% 30.31 in 10.0 mi SW 8.1 mph - N/A   Clear
3:15 PM 44.6 °F 39.7 °F 32.0 °F 61% 30.31 in 10.0 mi SW 9.2 mph - N/A   Clear
3:35 PM 44.6 °F 38.8 °F 32.0 °F 61% 30.31 in 10.0 mi SW 11.5 mph - N/A   Clear
3:55 PM 44.6 °F 40.7 °F 32.0 °F 61% 30.32 in 10.0 mi SSW 6.9 mph - N/A   Clear
4:15 PM 42.8 °F 38.0 °F 32.0 °F 66% 30.32 in 10.0 mi SW 8.1 mph - N/A   Clear
4:35 PM 41.0 °F 36.4 °F 32.0 °F 70% 30.32 in 10.0 mi SSW 6.9 mph - N/A   Clear
4:55 PM 39.2 °F 33.6 °F 32.0 °F 75% 30.32 in 10.0 mi SSW 8.1 mph - N/A   Clear
5:15 PM 35.6 °F 29.9 °F 32.0 °F 87% 30.32 in 10.0 mi SSW 6.9 mph - N/A   Clear
5:35 PM 35.6 °F 29.2 °F 32.0 °F 87% 30.31 in 10.0 mi SSW 8.1 mph - N/A   Clear
5:55 PM 35.6 °F 29.9 °F 30.2 °F 81% 30.31 in 10.0 mi SSW 6.9 mph - N/A   Clear
6:15 PM 33.8 °F 27.7 °F 30.2 °F 87% 30.31 in 10.0 mi SSW 6.9 mph - N/A   Clear
6:35 PM 33.8 °F 27.0 °F 30.2 °F 87% 30.31 in 10.0 mi SSW 8.1 mph - N/A   Clear
6:55 PM 35.6 °F 28.0 °F 30.2 °F 81% 30.31 in 10.0 mi SSW 10.4 mph - N/A   Clear
7:15 PM 35.6 °F 28.6 °F 30.2 °F 81% 30.32 in 10.0 mi SW 9.2 mph - N/A   Clear
7:35 PM 35.6 °F 28.0 °F 30.2 °F 81% 30.31 in 10.0 mi SW 10.4 mph - N/A   Clear
7:55 PM 33.8 °F 25.8 °F 30.2 °F 87% 30.31 in 10.0 mi SSW 10.4 mph - N/A   Clear
8:15 PM 33.8 °F 25.3 °F 30.2 °F 87% 30.31 in 10.0 mi SSW 11.5 mph - N/A   Clear
8:35 PM 32.0 °F 24.8 °F 30.2 °F 93% 30.32 in 10.0 mi SSW 8.1 mph - N/A   Clear
8:55 PM 32.0 °F 24.2 °F 30.2 °F 93% 30.31 in 10.0 mi SSW 9.2 mph - N/A   Clear
9:15 PM 32.0 °F 23.0 °F 30.2 °F 93% 30.31 in 10.0 mi SSW 11.5 mph - N/A   Clear
9:35 PM 32.0 °F 22.5 °F 30.2 °F 93% 30.30 in 10.0 mi SSW 12.7 mph - N/A   Clear
9:55 PM 32.0 °F 23.0 °F 30.2 °F 93% 30.30 in 7.0 mi SSW 11.5 mph - N/A   Clear
10:15 PM 32.0 °F 23.6 °F 30.2 °F 93% 30.30 in 7.0 mi SSW 10.4 mph - N/A   Clear
10:35 PM 32.0 °F 24.8 °F 30.2 °F 93% 30.30 in 7.0 mi SSW 8.1 mph - N/A   Clear
10:55 PM 30.2 °F 21.9 °F 30.2 °F 100% 30.30 in 7.0 mi SSW 9.2 mph - N/A   Clear
11:15 PM 30.2 °F 21.3 °F 28.4 °F 93% 30.30 in 5.0 mi SSW 10.4 mph - N/A   Scattered Clouds
11:35 PM 30.2 °F 19.8 °F 30.2 °F 100% 30.30 in 4.0 mi SSW 13.8 mph 19.6 mph N/A   Overcast
11:55 PM 30.2 °F 19.8 °F 30.2 °F 100% 30.31 in 3.0 mi SSW 13.8 mph - N/A   Overcast